Overview Statistics Trail Chart Weather Telemetry Raw packets
 

This is the latest recevied weather packets stored in our database for station/object WL7CLI. If no packets are shown the sender has not sent any weather packets the latest 10 day(s).

<< 68 69 70 71 72 73 74 >>
Time Temp. Humidity Pressure Rain* Wind** Luminosity Snow
1788047707 28.89° C 69% 1008.9 hPa 0 mm - - -
1788046685 28.89° C 68% 1008.8 hPa 0 mm - - -
1788046599 28.89° C 68% 1008.9 hPa 0 mm - - -
1788046507 28.89° C 68% 1008.8 hPa 0 mm - - -
1788046084 28.89° C 67% 1010.2 hPa 0 mm - - -
1788045399 28.89° C 67% 1008.8 hPa 0 mm - - -
1788045307 28.89° C 67% 1008.9 hPa 0 mm - - -
1788044284 28.89° C 66% 1010.3 hPa 0 mm - - -
1788044257 28.89° C 66% 1008.8 hPa 0 mm - - -
1788044200 28.89° C 66% 1008.8 hPa 0 mm - - -
1788044107 28.89° C 66% 1008.8 hPa 0 mm - - -
1788043153 29.44° C 65% 1009 hPa 0 mm - - -
1788043000 29.44° C 65% 1009 hPa 0 mm - - -
1788042907 29.44° C 65% 1009 hPa 0 mm - - -
1788042483 29.44° C 66% 1010.8 hPa 0 mm - - -
1788041907 28.89° C 70% 1009.1 hPa 0 mm - - -
1788041800 28.89° C 69% 1009.1 hPa 0 mm - - -
1788041706 28.89° C 70% 1009.1 hPa 0 mm - - -
1788040742 28.33° C 70% 1009.1 hPa 0 mm - - -
1788040684 28.33° C 70% 1010.6 hPa 0 mm - - -
1788040605 28.33° C 70% 1009 hPa 0 mm - - -
1788040507 28.33° C 70% 1009.1 hPa 0 mm - - -
1788039539 28.33° C 69% 1009.7 hPa 0 mm - - -
1788039399 27.78° C 69% 1009.7 hPa 0 mm - - -
1788039308 28.33° C 69% 1009.7 hPa 0 mm - - -

* Rain latest hour (hover to see other rain measurements)
** Current wind speed in m/s (hover to see current wind gust speed)